GFSFLT1_700_rhum_159.txt.gz
RH
24 24 20 18 18 17 17 17 18 19 19 21 23 24 25 22 19 18 19 18 16 14 11 8 6 5 5 5 6 6 6 6
27 27 26 27 24 20 20 20 21 22 25 27 28 28 28 30 28 25 21 16 12 10 8 7 6 6 7 8 8 9 12 12
30 29 29 28 30 30 26 26 28 30 32 31 33 35 33 29 25 20 17 14 12 10 8 9 9 8 9 10 12 13 15 20
35 32 33 33 33 33 33 34 35 35 36 42 39 35 32 28 26 23 21 20 19 18 17 16 14 13 15 17 20 23 24 28
49 39 38 35 35 35 34 37 38 48 48 42 40 37 32 29 29 30 30 30 30 30 30 29 28 27 27 29 30 30 29 28
45 40 38 36 36 35 33 42 50 51 48 47 44 34 26 30 28 16 17 29 33 36 37 37 36 34 30 30 34 36 35 36
38 38 36 39 41 41 42 46 52 53 51 49 40 21 20 22 14 6 7 13 21 34 39 40 38 36 33 30 37 45 43 35
42 41 40 45 46 48 54 56 58 55 54 50 32 14 20 16 7 6 6 9 20 27 37 46 42 42 42 42 51 59 54 39
48 48 51 50 49 52 52 53 56 58 56 42 17 10 10 18 10 7 7 8 18 24 33 56 64 69 71 70 67 61 53 43
46 51 55 53 53 55 58 57 60 62 54 28 17 11 6 6 8 8 8 8 9 17 33 47 65 72 74 76 72 68 61 53
48 48 54 54 57 72 69 65 65 65 54 38 23 8 7 7 8 9 10 10 10 11 16 30 41 46 52 62 69 71 80 80
52 60 57 64 62 71 84 81 72 67 52 32 14 8 7 8 10 10 12 12 11 11 10 11 27 34 34 38 44 64 70 72
70 63 62 63 72 81 100 97 90 93 50 48 11 8 8 10 11 12 14 14 14 13 12 11 10 21 21 20 30 33 55 78
78 77 68 80 90 98 98 96 94 83 88 20 10 8 10 12 13 15 16 16 16 16 15 14 12 11 16 17 10 13 20 36
71 82 76 87 100 100 99 96 94 91 36 47 8 10 12 14 16 17 18 18 18 18 16 16 15 14 13 12 10 9 8 8
62 82 73 88 97 96 90 91 94 92 77 11 9 12 15 17 18 18 17 18 18 18 17 18 17 17 16 15 14 12 11 10
66 70 74 87 86 87 93 96 91 58 10 9 12 15 17 18 18 19 21 22 23 22 22 21 21 20 19 19 18 16 15 14
70 78 80 82 87 96 97 92 80 21 8 10 15 17 16 20 24 27 28 28 28 27 27 26 26 25 24 23 23 22 20 19
71 72 80 87 94 94 92 85 27 9 10 15 18 18 21 27 29 28 29 31 32 32 31 30 29 29 28 28 27 26 24 23

GFSFLT1_700_rhum_162.txt.gz
RH
21 22 24 26 26 24 25 24 21 20 20 20 20 22 25 28 28 28 28 27 25 23 20 16 14 11 8 7 6 6 5 4
24 25 26 29 29 31 30 28 28 28 26 27 30 32 32 32 33 32 28 24 20 16 14 12 10 8 7 5 5 4 5 6
29 30 30 32 36 33 33 33 33 34 34 34 35 37 39 37 34 30 26 23 22 20 18 17 14 13 11 9 8 7 7 9
37 36 37 37 36 33 34 34 34 34 34 38 44 42 42 39 33 30 27 25 23 22 22 23 23 21 20 18 17 16 14 20
47 46 44 45 36 37 36 34 34 38 47 49 47 48 44 34 26 24 21 15 11 9 13 20 25 27 29 29 29 28 27 28
49 49 50 46 41 39 41 40 42 48 51 52 51 49 42 26 20 16 10 6 6 8 14 20 29 34 34 34 34 34 31 30
52 54 51 45 43 46 47 50 52 56 55 52 54 49 35 16 18 16 8 6 7 11 17 24 37 45 47 48 44 43 44 42
68 71 60 47 53 50 48 53 52 53 50 51 54 43 25 15 10 11 12 8 8 8 18 27 45 54 56 59 62 61 58 57
52 50 46 47 53 53 51 48 58 58 57 59 56 39 30 25 10 6 7 8 8 9 14 24 36 40 42 53 59 61 64 60
48 46 46 48 51 53 52 58 64 61 60 61 58 45 37 12 8 7 8 9 10 10 11 11 26 33 33 34 48 61 62 64
48 48 54 54 57 63 63 73 77 73 73 66 56 43 21 10 8 8 10 11 12 12 11 11 10 32 26 25 30 36 57 64
50 66 66 64 64 71 74 78 91 92 82 72 87 67 19 10 8 10 12 14 14 14 13 12 12 12 23 15 15 20 29 55
62 67 70 75 71 75 84 87 97 97 95 91 86 34 29 9 10 12 14 16 16 16 15 15 14 13 12 12 10 10 9 21
64 73 80 88 84 86 97 98 99 98 94 87 22 44 9 10 13 16 17 17 17 16 16 16 15 15 14 13 12 11 11 9
73 80 83 94 93 100 100 99 98 94 89 57 69 14 12 13 16 18 18 17 17 18 18 18 18 17 16 15 14 14 13 12
62 73 76 98 92 100 100 99 96 91 94 64 13 10 13 17 17 16 18 20 22 23 23 23 22 21 21 19 18 18 17 16
62 72 74 79 85 98 92 94 95 95 61 13 9 13 17 16 18 22 25 26 27 27 27 27 26 25 24 23 23 22 21 21
65 78 83 83 88 87 92 96 92 80 22 9 12 18 19 23 25 27 28 30 32 31 31 30 30 30 29 28 28 27 26 25
70 80 76 75 81 91 93 90 81 32 10 14 21 21 24 25 27 24 30 34 36 37 37 38 36 34 31 27 24 23 22 22

GFSFLT1_700_rhum_165.txt.gz
RH
21 21 21 22 23 26 30 29 29 28 27 27 28 29 31 32 32 33 33 32 31 29 25 21 19 16 15 14 14 12 12 11
25 24 23 25 27 35 38 33 31 31 31 32 33 33 33 35 38 38 37 33 29 25 23 20 18 16 13 10 9 8 8 8
28 27 26 29 36 42 36 34 33 34 33 32 33 36 42 43 42 39 33 28 26 22 19 17 17 17 18 17 14 11 9 9
33 32 33 36 42 45 38 36 34 34 34 37 45 48 46 47 42 35 27 22 16 12 8 7 7 10 16 20 20 20 16 19
34 39 41 44 45 49 45 40 38 38 40 43 49 50 51 48 41 32 22 16 12 10 6 6 10 14 22 27 30 29 29 28
44 48 49 48 53 57 58 52 44 45 46 50 54 53 52 46 39 27 19 15 15 12 7 9 16 19 32 37 39 40 39 37
56 59 54 65 71 70 52 49 48 51 52 50 52 52 53 45 34 26 19 9 7 7 8 9 17 24 33 36 41 45 48 51
64 63 72 78 56 48 49 52 54 50 49 55 57 58 54 46 41 35 13 7 7 7 8 9 13 22 28 31 34 44 52 52
62 61 58 56 50 49 52 57 54 56 62 62 62 61 58 50 45 22 10 8 8 8 10 10 11 16 25 25 27 27 46 56
47 58 55 49 50 52 56 58 60 67 73 70 73 70 58 56 39 18 10 8 9 11 12 12 11 11 15 25 18 25 21 45
44 48 50 52 66 64 61 58 66 72 78 83 84 70 75 77 28 15 9 10 12 13 14 14 13 12 12 13 16 20 20 25
54 54 53 66 69 70 72 68 70 77 84 89 90 89 89 35 27 10 11 13 14 15 16 15 14 14 14 13 12 13 18 13
59 58 62 64 71 80 83 80 85 93 95 95 95 89 33 26 10 11 14 16 16 16 15 15 15 15 15 15 14 13 12 15
60 53 53 72 85 91 96 93 95 95 94 92 89 59 60 13 12 14 16 16 15 15 16 17 18 17 17 16 16 16 15 14
56 50 57 74 94 99 100 100 93 96 94 89 86 68 16 12 15 17 16 17 19 22 23 22 22 22 21 20 19 19 19 18
46 57 73 82 92 92 100 98 100 99 93 90 65 13 11 14 17 18 21 24 25 26 26 27 26 25 25 23 23 22 22 22
68 72 73 74 86 87 88 95 98 95 92 78 18 10 15 18 23 25 26 26 28 30 30 30 30 32 31 29 28 25 24 23
72 70 70 77 85 84 93 99 93 95 85 34 10 14 20 24 26 27 26 29 33 35 37 37 36 32 26 19 16 15 14 14
54 65 74 81 80 85 88 91 96 86 55 12 12 21 23 26 28 24 27 34 37 38 33 21 16 15 15 15 16 18 20 20

GFSFLT1_700_rhum_171.txt.gz
RH
26 27 28 29 30 30 32 33 38 41 36 33 30 28 28 30 31 31 32 34 35 32 26 23 23 22 20 18 16 15 14 13
25 27 28 30 33 34 37 37 46 41 34 33 38 39 35 35 36 38 40 38 30 29 32 29 25 22 17 12 10 9 11 12
27 30 33 36 39 42 42 43 51 46 41 48 48 43 40 39 43 45 38 37 40 38 34 32 30 22 10 8 7 8 7 7
31 36 41 45 47 48 48 51 54 52 52 56 50 46 43 46 46 40 46 46 45 42 40 38 28 17 10 7 6 7 8 10
26 26 42 55 56 56 53 56 62 62 61 67 69 50 47 46 40 47 50 52 50 48 46 29 14 9 7 7 8 9 12 13
44 41 50 62 65 61 59 75 74 72 61 54 51 51 50 44 50 53 55 58 53 52 41 23 12 9 8 8 10 15 16 15
37 47 53 64 66 66 79 79 75 78 70 50 54 53 48 56 59 60 63 61 58 54 37 20 12 9 9 10 10 14 18 24
45 50 58 68 71 75 73 80 64 55 52 53 58 57 61 66 67 71 70 64 66 50 27 14 10 10 11 12 12 12 15 22
41 49 53 65 74 74 77 66 62 64 62 58 59 62 66 70 77 80 73 76 62 45 18 12 12 13 13 13 12 12 12 17
34 50 61 66 74 74 68 61 69 72 74 65 68 74 82 88 88 87 84 64 29 10 12 14 14 14 14 13 12 12 12 13
35 46 52 63 62 60 60 66 71 78 84 84 85 90 88 90 91 84 58 29 12 13 14 14 14 14 15 14 14 14 14 14
42 46 51 56 58 56 60 68 73 80 91 95 95 89 88 90 87 67 43 16 13 15 14 15 17 18 18 18 18 18 17 17
53 54 55 56 59 63 69 74 79 88 97 92 96 94 94 93 70 54 26 14 17 16 18 21 22 22 22 22 22 21 20 20
57 57 56 56 62 70 73 76 86 94 94 96 97 96 96 80 74 23 14 16 16 20 22 23 24 24 24 25 25 24 23 20
69 65 67 67 71 80 80 80 91 98 96 99 97 97 88 87 23 13 16 20 23 23 24 26 27 28 30 29 24 18 15 16
50 57 35 44 52 51 73 79 95 96 99 99 100 93 93 42 13 17 26 29 26 26 28 30 32 32 26 16 15 16 20 21
28 38 52 59 60 62 71 88 98 99 100 98 98 94 81 15 16 24 30 27 26 29 33 35 30 18 15 15 17 18 18 18
62 59 55 54 64 80 99 98 100 100 99 96 94 95 36 13 21 29 29 28 27 34 36 26 17 16 17 17 18 18 18 18
56 68 68 66 68 78 95 100 100 100 97 95 96 81 15 17 25 29 29 25 30 37 27 18 18 19 19 20 21 21 21 21